Notices

What's New in latest Release from April 7th, 2021:

- Updated Glossary, including Speed of Maximum Gust, and Total Hourly Precipitation

- Updated national and regional climate services offices contacts and prices information

- Addition of station inventory lists for 1981-2010, 1971-2000, and 1961-1990 Normals.

If you haven't already, please take our survey and provide feedback about our website: https://eccc.sondage-survey.ca/f/LanguageSelection.aspx?s=442ca660-fcf1-47c0-95a9-59707d6fd709

Hourly Data Report for April 01, 2017

CLYDE RIVER A
NUNAVUT

70°29'09.000" N
68°31'01.000" W
26.50 m
2400804
71090
YCY

Download Data

Hourly Data (April 2017)
Hourly Data Report for April 1, 2017
TIME
LST
Temp Definition
°C
Dew Point Definition
°C
Rel Hum Definition
%
Precip. Amount Definition
mm

Wind Dir Definition
10's deg

Wind Spd Definition
km/h
Visibility Definition
km
Stn Press Definition
kPa
Hmdx Definition


Wind Chill Definition


Weather Definition


00:00 -18.4 -23.7 64 0.0 31 39 16.1 101.76   -32 LegendNANA
01:00 -17.7 -24.3 57 0.0 30 28 16.1 101.79   -29 LegendNANA
02:00 -21.5 -26.4 65 0.0 29 22 16.1 101.79   -33 LegendNANA
03:00 -20.8 -26.0 64 0.0 24 18 16.1 101.80   -31 LegendNANA
04:00 -22.3 -26.9 67 0.0 28 22 16.1 101.82   -34 LegendNANA
05:00 -22.2 -26.9 66 0.0 24 13 16.1 101.80   -31 LegendNANA
06:00 -21.4 -26.5 64 0.0 27 15 16.1 101.81   -31 LegendNANA
07:00 -20.0 -25.4 63 0.0 25 15 16.1 101.83   -29 LegendNANA
08:00 -19.1 -24.3 64 0.0 24 11 16.1 101.82   -27 LegendNANA
09:00 -17.6 -23.1 63 0.0 29 24 16.1 101.80   -28 LegendNANA
10:00 -16.4 -21.9 63 0.0 21 5 16.1 101.79   -20 LegendNANA
11:00 -14.9 -21.5 58 0.0 25 11 16.1 101.77   -21 LegendNANA
12:00 -17.0 -21.7 67 0.0 25 9 16.1 101.73   -23 LegendNANA
13:00 -16.5 -20.9 69 0.0 25 11 16.1 101.71   -23 LegendNANA
14:00 -18.1 -22.3 70 0.0 36 13 16.1 101.72   -26 LegendNANA
15:00 -17.1 -21.2 71 0.0 33 15 16.1 101.71   -26 LegendNANA
16:00 -17.3 -21.6 70 0.0 30 9 16.1 101.70   -24 LegendNANA
17:00 -18.8 -22.2 75 0.0 23 9 16.1 101.70   -25 LegendNANA
18:00 -20.2 -23.2 77 0.0 25 8 16.1 101.69   -26 LegendNANA
19:00 -21.5 -24.4 78 0.0 27 9 16.1 101.67   -29 LegendNANA
20:00 -22.5 -25.8 75 0.0 25 9 16.1 101.67   -30 LegendNANA
21:00 -22.8 -27.0 69 0.0 26 8 16.1 101.62   -30 LegendNANA
22:00 -24.2 -28.1 71 0.0 29 8 16.1 101.57   -31 LegendNANA
23:00 -20.5 -26.2 61 0.0 28 9 16.1 101.54   -27 LegendNANA

Notes on Data Quality.

Legend

  • E = Estimated
  • M = Missing
  • NA = Not Available*
  • [empty] = Indicates an unobserved value
Date modified: